Voltar ao catálogo

ARIANE 2 R/B

AtivoHEO
NORAD 19920·ROCKET BODY·🇫🇷 France

Lançado Apr 2, 1989 de Guiana Space Centre

Loading…

Próximas Passagens (próximas 24 horas)

TLE

AtualizadoSource: Space-Track

Época: Sep 14, 2026, 12:48 UTC

1 19920U 89027B   26257.53354816  .00004179  00000-0  13015-2 0  9997
2 19920   4.0129 265.1966 5253790 326.1712   9.2648  5.15830985584962

Acompanhe ARIANE 2 R/B em tempo real com AllMySat

Download on the App Store